Weather observations for the past three days for
Las Cruces, Las Cruces International Airport
| Date | Time (mdt) | Wind (kph) | Vis. (km) | Weather | Sky Cond. | Temperature (ºC) | Relative Humidity | Wind Chill (°C) | Heat Index (°C) | Pressure | Precipitation (cm) | ||||||
|---|---|---|---|---|---|---|---|---|---|---|---|---|---|---|---|---|---|
| Air | Dwpt | 6 hour | altimeter (cm) | sea level (mb) | 1 hr | 3 hr | 6 hr | ||||||||||
| Max. | Min. | ||||||||||||||||
| 04 | 03:35 | W 22 | 16.09 | Fair | CLR | 16.1 | 3.3 | 43% | 76.1 | 0.0 | |||||||
| 04 | 03:15 | W 19 | 16.09 | Fair | CLR | 15.3 | 4.7 | 49% | 76.12 | 0.0 | |||||||
| 04 | 02:55 | W 15 | 16.09 | Fair | CLR | 15.5 | 5 | 50% | 76.15 | 0.0 | |||||||
| 04 | 02:35 | W 17 | 16.09 | Fair | CLR | 15.2 | 5.3 | 52% | 76.15 | 0.0 | |||||||
| 04 | 02:15 | W 11 | 16.09 | Fair | CLR | 15.2 | 6.4 | 56% | 76.15 | 0.0 | |||||||
| 04 | 01:55 | SW 6 | 16.09 | Fair | CLR | 14.4 | 6.8 | 61% | 76.17 | 0.0 | |||||||
| 04 | 01:35 | Calm | 16.09 | Fair | CLR | 15.1 | 6.1 | 55% | 76.17 | 0.0 | |||||||
| 04 | 01:15 | Calm | 16.09 | Fair | CLR | 15.8 | 5.8 | 52% | 76.17 | 0.0 | |||||||
| 04 | 00:55 | SW 7 | 16.09 | Fair | CLR | 15.9 | 5.8 | 51% | 76.2 | 0.0 | |||||||
| 04 | 00:35 | S 6 | 16.09 | Fair | CLR | 17 | 5.5 | 47% | 76.2 | 0.0 | |||||||
| 04 | 00:15 | S 9 | 16.09 | Fair | CLR | 16.8 | 5.3 | 47% | 76.2 | 0.0 | |||||||
| 03 | 23:55 | S 9 | 16.09 | Fair | CLR | 16.2 | 6 | 24 | 15.5 | 51% | 76.2 | 0.0 | |||||
| 03 | 23:35 | S 9 | 16.09 | Fair | CLR | 16.3 | 6 | 51% | 76.2 | 0.0 | |||||||
| 03 | 23:15 | SE 6 | 16.09 | Fair | CLR | 16.5 | 5.7 | 49% | 76.2 | 0.0 | |||||||
| 03 | 22:55 | SE 6 | 16.09 | Fair | CLR | 18.2 | 4.5 | 41% | 76.2 | 0.0 | |||||||
| 03 | 22:35 | SE 7 | 16.09 | Fair | CLR | 17.4 | 5.7 | 46% | 76.2 | 0.0 | |||||||
| 03 | 22:15 | Calm | 16.09 | Fair | CLR | 17 | 6 | 49% | 76.2 | 0.0 | |||||||
| 03 | 21:55 | Calm | 16.09 | Fair | CLR | 15.8 | 7.7 | 59% | 76.2 | 0.0 | |||||||
| 03 | 21:35 | Calm | 16.09 | Fair | CLR | 16 | 7.6 | 58% | 76.2 | 0.0 | |||||||
| 03 | 21:15 | SW 6 | 16.09 | Fair | CLR | 16.6 | 7.7 | 56% | 76.17 | 0.0 | |||||||
| 03 | 20:55 | SW 6 | 16.09 | Fair | CLR | 18.2 | 6.5 | 47% | 76.17 | 0.0 | |||||||
| 03 | 20:35 | SW 6 | 16.09 | Fair | CLR | 18.7 | 7.2 | 47% | 76.17 | 0.0 | |||||||
| 03 | 20:15 | SW 6 | 16.09 | Fair | CLR | 20 | 5.7 | 39% | 76.17 | 0.0 | |||||||
| 03 | 19:55 | SW 7 | 16.09 | Fair | CLR | 22 | 3.1 | 29% | 76.17 | 0.0 | |||||||
| 03 | 19:35 | SW 9 | 16.09 | Fair | CLR | 23 | 2.7 | 26% | 76.17 | 0.0 | |||||||
| 03 | 19:15 | S 7 | 16.09 | Fair | CLR | 22.2 | 5.3 | 33% | 76.17 | 0.0 | |||||||
| 03 | 18:55 | SE 7 | 16.09 | Fair | CLR | 23.6 | 3.6 | 27% | 76.17 | 0.0 | |||||||
| 03 | 18:35 | SW 11 | 16.09 | Fair | CLR | 23.8 | 3.2 | 26% | 76.2 | 0.0 | |||||||
| 03 | 18:15 | SW 15 | 16.09 | Partly Cloudy | SCT080 | 24 | 3.5 | 26% | 25 | 76.2 | 0.0 | ||||||
| 03 | 17:55 | S 7 | 16.09 | Fair | CLR | 23.5 | 3.8 | 23.8 | 19 | 28% | 76.2 | 0.0 | |||||
| 03 | 17:35 | S 7 | 16.09 | Fair | CLR | 23.5 | 4 | 28% | 76.2 | 0.0 | |||||||
| 03 | 17:15 | E 17 | 16.09 | Fair | CLR | 23.1 | 4.8 | 31% | 76.2 | 0.0 | |||||||
| 03 | 16:55 | NE 11 | 16.09 | Fair | CLR | 22.9 | 5.1 | 32% | 76.25 | 0.0 | |||||||
| 03 | 16:35 | E 9 | 16.09 | Fair | CLR | 23 | 5.1 | 31% | 76.28 | 0.0 | |||||||
| 03 | 16:15 | E 7 | 16.09 | Partly Cloudy | SCT080 | 22.8 | 5.1 | 32% | 76.3 | 0.0 | |||||||
| 03 | 15:55 | E 7 | 16.09 | Fair | CLR | 22.7 | 5 | 32% | 76.3 | 0.0 | |||||||
| 03 | 15:35 | E 13 | 16.09 | Fair | CLR | 23.3 | 4.6 | 30% | 76.35 | 0.0 | |||||||
| 03 | 15:15 | S 15 | 16.09 | Fair | CLR | 22.6 | 4.2 | 30% | 76.4 | 0.0 | |||||||
| 03 | 14:55 | S 9 | 16.09 | Fair | CLR | 22.9 | 4.3 | 30% | 76.4 | 0.0 | |||||||
| 03 | 14:35 | SE 17 | 16.09 | Fair | CLR | 22.3 | 4.6 | 32% | 76.45 | 0.0 | |||||||
| 03 | 14:15 | SE 9 | 16.09 | Fair | CLR | 21.5 | 4.6 | 33% | 76.5 | 0.0 | |||||||
| 03 | 13:55 | SE 7 | 16.09 | Fair | CLR | 20.7 | 4.5 | 35% | 76.5 | 0.0 | |||||||
| 03 | 13:35 | S 9 | 16.09 | Fair | CLR | 19.8 | 4.3 | 36% | 76.53 | 0.0 | |||||||
| 03 | 12:55 | SE 11 | 16.09 | Fair | CLR | 19.9 | 4.6 | 37% | 76.58 | 0.0 | |||||||
| 03 | 12:35 | SE 9 | 16.09 | Fair | CLR | 19.9 | 4.7 | 37% | 76.58 | 0.0 | |||||||
| 03 | 12:15 | E 9 | 16.09 | Fair | CLR | 19.5 | 4.6 | 38% | 76.61 | 0.0 | |||||||
| 03 | 11:55 | SE 13 | 16.09 | Fair | CLR | 19.1 | 5 | 19.3 | 7.8 | 40% | 76.63 | 0.0 | |||||
| 03 | 11:35 | E 17 | 16.09 | Fair | CLR | 19 | 4.7 | 39% | 76.63 | 0.0 | |||||||
| 03 | 11:15 | E 17 | 16.09 | Fair | CLR | 18.5 | 4.6 | 40% | 76.66 | 0.0 | |||||||
| 03 | 10:55 | E 19 | 16.09 | Fair | CLR | 17.8 | 5.6 | 45% | 76.66 | 0.0 | |||||||
| 03 | 10:35 | SE 15 | 16.09 | Fair | CLR | 17 | 6 | 49% | 76.68 | 0.0 | |||||||
| 03 | 10:15 | E 13 | 16.09 | Fair | CLR | 16.7 | 6.1 | 50% | 76.68 | 0.0 | |||||||
| 03 | 09:55 | E 9 | 16.09 | Fair | CLR | 15.8 | 5.6 | 51% | 76.71 | 0.0 | |||||||
| 03 | 09:35 | E 6 | 16.09 | Fair | CLR | 15.4 | 5.7 | 53% | 76.68 | 0.0 | |||||||
| 03 | 09:15 | E 7 | 16.09 | Fair | CLR | 14.6 | 5.6 | 55% | 76.68 | 0.0 | |||||||
| 03 | 08:55 | E 6 | 16.09 | Fair | CLR | 13.8 | 5.9 | 59% | 76.68 | 0.0 | |||||||
| 03 | 08:35 | Calm | 16.09 | Fair | CLR | 13.5 | 7.8 | 69% | 76.68 | 0.0 | |||||||
| 03 | 08:15 | Calm | 16.09 | Fair | CLR | 12.7 | 6.8 | 68% | 76.71 | 0.0 | |||||||
| 03 | 07:55 | Calm | 16.09 | Partly Cloudy | SCT110 | 11.6 | 7.7 | 77% | 76.68 | 0.0 | |||||||
| 03 | 07:35 | Calm | 16.09 | Mostly Cloudy | BKN110 | 10 | 7.4 | 84% | 76.68 | 0.0 | |||||||
| 03 | 07:15 | NW 6 | 16.09 | Partly Cloudy | SCT110 | 9.1 | 7.1 | 87% | 76.68 | 0.0 | |||||||
| 03 | 06:55 | NW 6 | 16.09 | Fair | CLR | 8.5 | 6.6 | 88% | 76.63 | 0.0 | |||||||
| 03 | 06:35 | NW 6 | 16.09 | Partly Cloudy | SCT110 | 8.2 | 6.7 | 90% | 76.63 | 0.0 | |||||||
| 03 | 06:15 | Calm | 16.09 | Partly Cloudy | SCT110 | 7.8 | 6.6 | 92% | 76.61 | 0.0 | |||||||
| 03 | 05:55 | Calm | 16.09 | Fair | CLR | 8.1 | 6.8 | 12.1 | 8.1 | 92% | 76.61 | 0.0 | |||||
| 03 | 05:35 | N 6 | 16.09 | Partly Cloudy | SCT110 | 8.3 | 6.8 | 90% | 76.58 | 0.0 | |||||||
| 03 | 05:15 | NW 6 | 16.09 | Partly Cloudy | SCT110 | 8.4 | 6.8 | 90% | 76.61 | 0.0 | |||||||
| 03 | 04:55 | NW 7 | 16.09 | Fair | CLR | 8.5 | 6.8 | 89% | 8 | 76.61 | 0.0 | ||||||
| 03 | 04:35 | NW 6 | 16.09 | Fair | CLR | 8.7 | 7 | 89% | 76.61 | 0.0 | |||||||
| 03 | 04:15 | Calm | 16.09 | Fair | CLR | 10 | 6.6 | 80% | 76.63 | 0.0 | |||||||
| 03 | 03:55 | Calm | 16.09 | Fair | CLR | 8.9 | 7.1 | 89% | 76.63 | 0.0 | |||||||
| 03 | 03:35 | Calm | 16.09 | Fair | CLR | 9.1 | 7.2 | 88% | 76.63 | 0.0 | |||||||
| 03 | 03:15 | Calm | 16.09 | Fair | CLR | 9 | 7.2 | 89% | 76.63 | 0.0 | |||||||
| 03 | 02:55 | NW 6 | 16.09 | Fair | CLR | 9.3 | 7.2 | 87% | 76.63 | 0.0 | |||||||
| 03 | 02:35 | NW 6 | 16.09 | Fair | CLR | 9.9 | 7 | 82% | 76.66 | 0.0 | |||||||
| 03 | 02:15 | NW 6 | 16.09 | Fair | CLR | 10.2 | 6.8 | 80% | 76.68 | 0.0 | |||||||
| 03 | 01:55 | Calm | 16.09 | Fair | CLR | 10.5 | 7 | 79% | 76.68 | 0.0 | |||||||
| 03 | 01:35 | Calm | 16.09 | Fair | CLR | 10.9 | 6.9 | 77% | 76.71 | 0.0 | |||||||
| 03 | 01:15 | Calm | 16.09 | Fair | CLR | 11.3 | 6.6 | 73% | 76.73 | 0.0 | |||||||
| 03 | 00:55 | NE 6 | 16.09 | Fair | CLR | 11.2 | 6.5 | 73% | 76.73 | 0.0 | |||||||
| 03 | 00:35 | Calm | 16.09 | Fair | CLR | 11.4 | 7.1 | 75% | 76.71 | 0.0 | |||||||
| 03 | 00:15 | N 6 | 16.09 | Fair | CLR | 10.6 | 8 | 84% | 76.71 | 0.0 | |||||||
| 02 | 23:55 | N 6 | 16.09 | Fair | CLR | 11.3 | 7.8 | 18.5 | 11.3 | 79% | 76.68 | 0.0 | |||||
| 02 | 23:35 | N 7 | 16.09 | Fair | CLR | 11.8 | 7.9 | 77% | 76.66 | 0.0 | |||||||
| 02 | 23:15 | N 7 | 16.09 | Fair | CLR | 12.1 | 8 | 76% | 76.68 | 0.0 | |||||||
| 02 | 22:55 | NW 7 | 16.09 | Partly Cloudy | SCT110 | 12.7 | 7.6 | 71% | 76.68 | 0.0 | |||||||
| 02 | 22:35 | NW 7 | 16.09 | Mostly Cloudy | BKN110 | 13 | 8 | 72% | 76.66 | 0.0 | |||||||
| 02 | 22:15 | N 7 | 16.09 | Partly Cloudy | SCT110 | 13.3 | 7.7 | 69% | 76.66 | 0.0 | |||||||
| 02 | 21:55 | NE 7 | 16.09 | Fair | CLR | 13.4 | 9 | 75% | 76.68 | 0.0 | |||||||
| 02 | 21:35 | Calm | 16.09 | Fair | CLR | 14 | 8.2 | 68% | 76.66 | 0.0 | |||||||
| 02 | 21:15 | Calm | 16.09 | Fair | CLR | 14.1 | 8.3 | 68% | 76.63 | 0.0 | |||||||
| 02 | 20:55 | Calm | 16.09 | Fair | CLR | 14.6 | 7.6 | 63% | 76.63 | 0.0 | |||||||
| 02 | 20:15 | NE 6 | 16.09 | Partly Cloudy | SCT100 | 15.8 | 5.7 | 51% | 76.61 | 0.0 | |||||||
| 02 | 19:55 | N 7 | 16.09 | Mostly Cloudy | SCT055 SCT100 BKN120 | 16.4 | 4.7 | 46% | 76.61 | 0.0 | |||||||
| 02 | 19:35 | N 7 | 16.09 | Partly Cloudy | SCT055 SCT100 SCT120 | 17 | 4.4 | 43% | 76.61 | 0.0 | |||||||
| 02 | 19:15 | Calm | 16.09 | Partly Cloudy | SCT100 | 17.6 | 3.5 | 39% | 76.58 | 0.0 | |||||||
| 02 | 18:55 | E 9 | 16.09 | Fair | CLR | 17.8 | 3.5 | 39% | 76.58 | 0.0 | |||||||
| 02 | 18:35 | E 11 | 16.09 | Fair | CLR | 18.2 | 3.3 | 37% | 76.58 | 0.0 | |||||||
| 02 | 18:15 | E 7 | 16.09 | Fair | CLR | 18.3 | 3.7 | 38% | 76.58 | 0.0 | |||||||
| 02 | 17:55 | E 11 | 16.09 | Fair | CLR | 18.5 | 3.5 | 18.6 | 13.9 | 37% | 76.58 | 0.0 | |||||
| 02 | 17:35 | SE 9 | 16.09 | Fair | CLR | 18.5 | 3.6 | 37% | 76.58 | 0.0 | |||||||
| 02 | 17:15 | E 11 | 16.09 | Fair | CLR | 18.2 | 3.5 | 38% | 76.56 | 0.0 | |||||||
| 02 | 16:55 | NE 7 | 16.09 | Fair | CLR | 18.2 | 3.9 | 39% | 76.58 | 0.0 | |||||||
| 02 | 16:35 | E 13 | 16.09 | Fair | CLR | 18.5 | 4.4 | 40% | 76.58 | 0.0 | |||||||
| 02 | 16:15 | SE 15 | 16.09 | Partly Cloudy | SCT047 SCT120 | 18.2 | 4.4 | 40% | 76.61 | 0.0 | |||||||
| 02 | 15:55 | E 13 | 16.09 | Mostly Cloudy | BKN047 BKN120 | 17.9 | 4.8 | 42% | 76.61 | 0.0 | |||||||
| 02 | 15:35 | E 17 | 16.09 | Mostly Cloudy | BKN045 | 17.1 | 4.5 | 43% | 76.66 | 0.0 | |||||||
| 02 | 15:15 | E 11 | 16.09 | Mostly Cloudy | BKN045 | 17.1 | 4.3 | 43% | 76.68 | 0.0 | |||||||
| 02 | 14:55 | SE 9 | 16.09 | Mostly Cloudy | BKN045 | 17.7 | 4.8 | 43% | 76.71 | 0.0 | |||||||
| 02 | 14:35 | SE 7 | 16.09 | Partly Cloudy | SCT047 | 16.6 | 4.3 | 44% | 76.73 | 0.0 | |||||||
| 02 | 14:15 | SE 15 | 16.09 | Partly Cloudy | SCT047 | 16.5 | 5.3 | 48% | 76.73 | 0.0 | |||||||
| 02 | 13:55 | SE 6 | 16.09 | Mostly Cloudy | BKN045 | 16 | 5 | 48% | 76.78 | 0.0 | |||||||
| 02 | 13:15 | NE 6 | 16.09 | Mostly Cloudy | BKN038 BKN046 | 15.1 | 5.1 | 51% | 76.81 | 0.0 | |||||||
| 02 | 12:55 | E 6 | 16.09 | Overcast | BKN036 BKN049 OVC120 | 14.4 | 5.1 | 54% | 76.84 | 0.0 | |||||||
| 02 | 12:35 | Calm | 16.09 | Overcast | BKN034 OVC120 | 14.3 | 5.4 | 55% | 76.84 | 0.0 | |||||||
| 02 | 12:15 | E 11 | 16.09 | Mostly Cloudy | BKN032 BKN120 | 14.9 | 6.4 | 57% | 76.86 | 0.0 | |||||||
| 02 | 11:55 | SE 13 | 16.09 | Mostly Cloudy | SCT031 BKN040 BKN085 | 13.8 | 6.2 | 13.8 | 7 | 60% | 76.89 | 0.0 | |||||
| 02 | 11:35 | SE 11 | 16.09 | Mostly Cloudy | SCT027 BKN032 BKN085 | 13.2 | 5.7 | 61% | 76.89 | 0.0 | |||||||
| 02 | 11:15 | SE 15 | 16.09 | Overcast | SCT027 BKN043 OVC120 | 13.6 | 6.8 | 64% | 76.89 | 0.0 | |||||||
| 02 | 10:55 | SE 7 | 16.09 | Overcast | SCT026 OVC043 | 12.6 | 5.8 | 64% | 76.89 | 0.0 | |||||||
| 02 | 10:35 | SE 15 | 16.09 | Overcast | OVC039 | 12.1 | 5.6 | 65% | 76.89 | 0.0 | |||||||
| 02 | 10:15 | SE 9 | 16.09 | Overcast | SCT033 OVC039 | 11.8 | 5.7 | 66% | 76.89 | 0.0 | |||||||
| 02 | 09:55 | SE 15 | 16.09 | Overcast | BKN035 OVC043 | 11.1 | 5.1 | 67% | 76.89 | 0.0 | |||||||
| 02 | 09:35 | SE 9 | 16.09 | Overcast | BKN037 BKN044 OVC055 | 10.3 | 5.5 | 72% | 76.89 | 0.0 | |||||||
| 02 | 09:15 | Calm | 16.09 | Overcast | SCT020 OVC035 | 9.7 | 5.7 | 76% | 76.86 | 0.0 | |||||||
| 02 | 08:55 | S 6 | 16.09 | Overcast | SCT018 OVC030 | 9.3 | 6.5 | 83% | 76.84 | 0.0 | |||||||
| 02 | 08:35 | Calm | 16.09 | Overcast | SCT020 OVC026 | 9 | 5.9 | 81% | 76.84 | 0.0 | |||||||
| 02 | 08:15 | W 7 | 16.09 | Overcast | SCT020 OVC031 | 8.8 | 5.7 | 81% | 8 | 76.84 | 0.0 | ||||||
| 02 | 07:55 | W 7 | 16.09 | Overcast | SCT026 BKN031 OVC080 | 8.6 | 6 | 84% | 8 | 76.81 | 0.0 | ||||||
| 02 | 07:35 | W 9 | 16.09 | Overcast | SCT019 BKN024 OVC080 | 8.5 | 6.1 | 85% | 7 | 76.81 | 0.0 | ||||||
| 02 | 07:15 | SW 7 | 16.09 | Overcast | SCT013 OVC022 | 8.2 | 6.1 | 87% | 7 | 76.78 | 0.0 | ||||||
| 02 | 06:55 | W 6 | 16.09 | Overcast | SCT009 OVC013 | 7.7 | 6.1 | 90% | 76.78 | 0.0 | |||||||
| 02 | 06:35 | Calm | 16.09 | Overcast | SCT009 SCT013 OVC030 | 7.5 | 5.9 | 90% | 76.73 | 0.0 | |||||||
| 02 | 06:15 | Calm | 16.09 | Overcast | OVC032 | 7.2 | 6.2 | 93% | 76.73 | 0.0 | |||||||
| 02 | 05:55 | Calm | 16.09 | Mostly Cloudy | SCT032 BKN080 | 7 | 6 | 10.3 | 6.7 | 93% | 76.73 | 0.0 | 0.23 | ||||
| 02 | 05:35 | Calm | 16.09 | Mostly Cloudy | BKN080 | 7 | 5.8 | 92% | 76.71 | 0.0 | |||||||
| 02 | 05:15 | E 7 | 16.09 | Overcast | OVC080 | 7.4 | 5.7 | 89% | 6 | 76.68 | 0.0 | ||||||
| 02 | 04:55 | SE 7 | 16.09 | Overcast | BKN080 OVC110 | 7.5 | 5.8 | 89% | 6 | 76.71 | 0.0 | 0.03 | |||||
| 02 | 04:35 | SE 11 | 16.09 | Light Drizzle | SCT024 BKN080 OVC110 | 7.7 | 6 | 89% | 6 | 76.71 | 0.0 | 0.03 | |||||
| 02 | 04:15 | SE 9 | 16.09 | Light Rain | SCT018 SCT026 OVC050 | 8 | 6 | 87% | 7 | 76.71 | 0.0 | 0.03 | |||||
| 02 | 03:55 | Calm | 16.09 | Light Rain | OVC050 | 8.3 | 5.7 | 84% | 76.71 | 0.0 | 0.15 | ||||||
| 02 | 03:35 | Calm | 11.27 | Rain | BKN019 BKN043 OVC060 | 8.3 | 5.9 | 85% | 76.68 | 0.0 | 0.13 | ||||||
| 02 | 03:15 | S 6 | 11.27 | Light Rain | BKN019 BKN036 OVC065 | 8.6 | 6.1 | 84% | 76.68 | 0.0 | 0.08 | ||||||
| 02 | 02:55 | SE 6 | 16.09 | Rain | SCT023 SCT041 OVC075 | 8.7 | 6.6 | 87% | 76.66 | 0.0 | 0.05 | 0.05 | |||||
| 02 | 02:35 | Calm | 16.09 | Light Rain | SCT023 BKN050 OVC080 | 9.3 | 6.6 | 83% | 76.66 | 0.0 | 0.03 | ||||||
| 02 | 02:15 | SW 6 | 16.09 | Drizzle | BKN050 BKN060 OVC075 | 10 | 5.9 | 76% | 76.68 | 0.0 | |||||||
| 02 | 01:55 | SW 7 | 16.09 | Light Rain | SCT022 BKN060 OVC100 | 10 | 5.2 | 72% | 9 | 76.68 | 0.0 | ||||||
| 02 | 01:35 | SW 6 | 16.09 | Overcast | BKN024 BKN060 OVC075 | 10.2 | 4.8 | 69% | 76.68 | 0.0 | |||||||
| 02 | 01:15 | SE 11 | 16.09 | Overcast | SCT028 BKN080 OVC120 | 9.9 | 4.5 | 69% | 9 | 76.63 | 0.0 | ||||||
| 02 | 00:55 | SE 11 | 16.09 | Overcast | OVC080 | 10 | 4.7 | 70% | 9 | 76.63 | 0.0 | ||||||
| 02 | 00:35 | SE 15 | 16.09 | Overcast | OVC080 | 10.2 | 4.7 | 69% | 76.63 | 0.0 | |||||||
| 02 | 00:15 | SE 9 | 16.09 | Overcast | SCT080 OVC110 | 10.1 | 4.7 | 69% | 76.61 | 0.0 | |||||||
| 01 | 23:55 | SE 13 | 16.09 | Partly Cloudy | SCT110 | 10.2 | 4.9 | 16.6 | 9.7 | 70% | 76.58 | 0.0 | 0.08 | ||||
| 01 | 23:35 | SE 9 | 16.09 | Fair | CLR | 10 | 5.4 | 73% | 9 | 76.58 | 0.0 | ||||||
| 01 | 23:15 | Calm | 16.09 | Partly Cloudy | SCT080 | 10.1 | 5.5 | 73% | 76.58 | 0.0 | |||||||
| 01 | 22:55 | S 11 | 16.09 | Mostly Cloudy | BKN080 | 10.4 | 5.7 | 73% | 76.56 | 0.0 | |||||||
| 01 | 22:35 | SE 9 | 16.09 | Mostly Cloudy | BKN090 BKN110 | 10.4 | 5.7 | 73% | 76.53 | 0.0 | |||||||
| 01 | 22:15 | SE 11 | 16.09 | Mostly Cloudy | BKN090 BKN110 | 10.3 | 6.5 | 78% | 76.5 | 0.0 | |||||||
| 01 | 21:55 | SE 11 | 16.09 | Mostly Cloudy | BKN090 | 10.5 | 6.8 | 78% | 76.5 | 0.0 | |||||||
| 01 | 21:35 | SE 13 | 16.09 | Mostly Cloudy | BKN090 BKN120 | 10.7 | 8 | 84% | 76.48 | 0.0 | |||||||
| 01 | 21:15 | SE 17 | 16.09 | Overcast | SCT005 OVC110 | 10.8 | 9.5 | 92% | 76.43 | 0.0 | |||||||
| 01 | 20:55 | SE 7 | 16.09 | Mostly Cloudy | SCT090 BKN110 | 11 | 10 | 94% | 76.45 | 0.0 | 0.08 | ||||||
| 01 | 20:35 | SE 6 | 16.09 | Fair | CLR | 11 | 9.7 | 92% | 76.43 | 0.0 | |||||||
| 01 | 20:15 | E 15 | 16.09 | Partly Cloudy | SCT019 SCT024 SCT090 | 11.2 | 9.1 | 87% | 76.4 | 0.0 | |||||||
| 01 | 19:55 | E 15 | 11.27 | Light Rain | SCT019 BKN039 OVC060 | 11.6 | 8.7 | 83% | 76.38 | 0.0 | 0.08 | ||||||
| 01 | 19:35 | E 15 | 16.09 | Light Rain | SCT019 BKN050 OVC075 | 12.5 | 8.3 | 76% | 76.4 | 0.0 | 0.03 | ||||||
| 01 | 19:15 | SE 15 | 16.09 | Rain | SCT026 BKN050 OVC075 | 14 | 7.6 | 66% | 76.35 | 0.0 | |||||||
| 01 | 18:55 | SE 20 G 28 | 16.09 | Rain | SCT026 BKN050 OVC075 | 15.6 | 6 | 53% | 76.3 | 0.0 | |||||||
| 01 | 18:35 | E 13 G 28 | 16.09 | Overcast | SCT050 BKN070 OVC090 | 16.1 | 5.7 | 50% | 76.28 | 0.0 | |||||||
| 01 | 18:15 | SE 20 G 31 | 16.09 | Mostly Cloudy | SCT080 BKN090 BKN120 | 16.5 | 6.3 | 51% | 76.25 | 0.0 | |||||||
| 01 | 17:55 | SE 22 G 30 | 16.09 | Mostly Cloudy | BKN120 | 16.5 | 6.8 | 19.4 | 14.1 | 53% | 76.25 | 0.0 | |||||
| 01 | 17:35 | SE 20 | 16.09 | Overcast | SCT070 SCT075 OVC120 | 17.6 | 6.1 | 47% | 76.23 | 0.0 | |||||||
| 01 | 17:15 | SE 19 | 16.09 | Mostly Cloudy | SCT055 SCT070 BKN120 | 18 | 6.1 | 46% | 76.2 | 0.0 | |||||||
| 01 | 16:55 | SE 17 | 16.09 | Mostly Cloudy | SCT048 BKN055 | 17.6 | 6 | 47% | 76.17 | 0.0 | |||||||
| 01 | 16:15 | SE 9 | 16.09 | Mostly Cloudy | BKN048 BKN055 | 18.4 | 6.8 | 47% | 76.17 | 0.0 | |||||||
| 01 | 15:55 | S 6 | 16.09 | Mostly Cloudy | BKN048 BKN060 | 19.3 | 7.4 | 46% | 76.17 | 0.0 | |||||||
| 01 | 15:35 | NE 9 | 16.09 | Partly Cloudy | SCT048 | 18.1 | 5.5 | 44% | 76.2 | 0.0 | |||||||
| 01 | 15:15 | E 11 | 16.09 | Mostly Cloudy | BKN046 BKN050 | 17.8 | 5.8 | 46% | 76.2 | 0.0 | |||||||
| 01 | 14:55 | NE 6 | 16.09 | Mostly Cloudy | BKN046 BKN060 | 17.7 | 5.9 | 46% | 76.2 | 0.0 | |||||||
| 01 | 14:35 | E 19 | 16.09 | Mostly Cloudy | SCT042 SCT049 BKN060 | 18.2 | 6.4 | 46% | 76.23 | 0.0 | |||||||
| 01 | 14:15 | E 17 | 16.09 | Partly Cloudy | SCT042 | 17.4 | 6.7 | 50% | 76.23 | 0.0 | |||||||
| 01 | 13:55 | NE 17 | 16.09 | Partly Cloudy | SCT038 | 17 | 6.8 | 51% | 76.23 | 0.0 | |||||||
| 01 | 13:35 | NE 15 | 16.09 | Partly Cloudy | SCT050 SCT110 | 16.6 | 7.3 | 54% | 76.23 | 0.0 | |||||||
| 01 | 13:15 | NE 11 | 16.09 | Overcast | SCT043 BKN050 OVC095 | 15.8 | 7.2 | 57% | 76.25 | 0.0 | |||||||
| 01 | 12:55 | NE 17 | 16.09 | Overcast | BKN047 OVC095 | 15.6 | 7.5 | 59% | 76.25 | 0.0 | |||||||
| 01 | 12:35 | NE 17 | 16.09 | Overcast | SCT027 BKN045 OVC095 | 15 | 7.4 | 61% | 76.25 | 0.0 | |||||||
| 01 | 11:55 | N 13 | 16.09 | Overcast | BKN024 BKN031 OVC042 | 14.1 | 9.1 | 14.3 | 10.2 | 72% | 76.25 | 0.0 | 0.05 | ||||
| 01 | 11:35 | N 20 | 16.09 | Overcast | BKN022 OVC029 | 13.6 | 9.3 | 75% | 76.25 | 0.0 | |||||||
| 01 | 11:15 | N 17 | 16.09 | Overcast | BKN020 BKN034 OVC080 | 14.1 | 9 | 72% | 76.25 | 0.0 | |||||||
| 01 | 10:55 | N 13 | 16.09 | Overcast | SCT016 BKN080 OVC090 | 14.2 | 9.3 | 73% | 76.23 | 0.0 | |||||||
| 01 | 10:35 | N 15 | 16.09 | Overcast | SCT050 BKN070 OVC080 | 14.3 | 10.5 | 78% | 76.2 | 0.0 | |||||||
| 01 | 10:15 | N 9 | 16.09 | Light Drizzle | BKN050 OVC060 | 12 | 10 | 88% | 76.2 | 0.0 | |||||||
| 01 | 09:55 | N 9 | 16.09 | Light Drizzle | OVC048 | 11.5 | 10.1 | 91% | 76.17 | 0.0 | |||||||
| 01 | 09:35 | N 13 | 16.09 | Overcast | SCT010 OVC044 | 11.5 | 9.5 | 88% | 76.17 | 0.0 | |||||||
| 01 | 09:15 | NW 9 | 16.09 | Overcast | BKN010 OVC044 | 11.3 | 9.4 | 88% | 76.15 | 0.0 | |||||||
| 01 | 08:55 | N 6 | 16.09 | Overcast | BKN008 OVC048 | 11 | 9.6 | 91% | 76.15 | 0.0 | 0.05 | ||||||
| 01 | 08:35 | Calm | 16.09 | Overcast | OVC008 | 10.8 | 9.5 | 92% | 76.12 | 0.0 | |||||||
| 01 | 08:15 | NE 6 | 16.09 | Overcast | BKN006 OVC010 | 10.6 | 9.8 | 95% | 76.12 | 0.0 | |||||||
| 01 | 07:55 | NE 9 | 16.09 | Light Rain | BKN008 BKN034 OVC060 | 10.5 | 9.6 | 94% | 76.1 | 0.0 | 0.03 | ||||||
| 01 | 07:35 | Calm | 16.09 | Drizzle | BKN006 BKN010 OVC034 | 10.5 | 9.5 | 94% | 76.12 | 0.0 | |||||||
| 01 | 07:15 | Calm | 16.09 | Light Rain | BKN006 BKN011 OVC070 | 10.4 | 9.4 | 94% | 76.1 | 0.0 | |||||||
| 01 | 06:55 | W 7 | 11.27 | Light Rain | SCT006 BKN050 OVC060 | 10.3 | 9.3 | 94% | 76.07 | 0.0 | 0.03 | ||||||
| 01 | 06:35 | W 15 | 16.09 | Drizzle | OVC050 | 10.3 | 9 | 92% | 76.05 | 0.0 | |||||||
| 01 | 06:15 | W 9 | 16.09 | Overcast | BKN065 OVC075 | 10.5 | 8.7 | 89% | 76.02 | 0.0 | |||||||
| 01 | 05:55 | SW 11 | 16.09 | Overcast | OVC075 | 10.3 | 8.6 | 13 | 10 | 89% | 76.02 | 0.0 | 0.43 | ||||
| 01 | 05:35 | SW 13 | 16.09 | Overcast | OVC075 | 10.2 | 8.8 | 91% | 76.02 | 0.0 | |||||||
| 01 | 05:15 | SW 15 | 16.09 | Overcast | SCT049 OVC075 | 10.2 | 9.2 | 94% | 76 | 0.0 | |||||||
| 01 | 04:55 | NW 6 | 16.09 | Light Rain | SCT049 BKN075 OVC080 | 10 | 8.8 | 92% | 75.95 | 0.0 | 0.15 | ||||||
| 01 | 04:35 | W 9 | 16.09 | Light Rain | BKN060 OVC075 | 10 | 8.8 | 92% | 9 | 75.95 | 0.0 | 0.15 | |||||
| 01 | 04:15 | SW 22 | 11.27 | Rain | SCT007 SCT021 OVC060 | 10 | 8.7 | 92% | 7 | 75.97 | 0.0 | 0.1 | |||||
| 01 | 03:55 | SW 26 | 8.05 | Rain | SCT009 BKN046 OVC055 | 10.4 | 9.1 | 92% | 76 | 0.0 | 0.25 | ||||||
| Date | Time (mdt) | Wind (kph) | Vis. (km) | Weather | Sky Cond. | Air | Dwpt | Max. | Min. | Relative Humidity | Wind Chill (°C) | Heat Index (°C) | altimeter (cm) | sea level (mb) | 1 hr | 3 hr | 6 hr |
| 6 hour | |||||||||||||||||
| Temperature (ºC) | Pressure | Precipitation (cm) | |||||||||||||||